STARLINK-37240, 69031

Orbit data source: Space-Track

STARLINK-37240, 69031 is a payload satellite owned by SpaceX/Seattle (US) in SSO that was launched on Wed, 06 May 2026 UTC via an FALCON 9 launch vehicle from the Air Force Western Test Range (AFWTR). Payload-class satellites include a variety of spacecraft equipped with specific instruments for various scientific and technological missions. These include communications satellites like Starlink; space stations such as the ISS; scientific satellites like the Hubble; Earth observation satellites from companies like Planet Labs, Umbra, and HawkEye 360; GPS; miniature CubeSats for education and research; and military/defense satellites.

Loading next visibility...
Identifier
69031, 2026-101G
Orbit
SSO
Country
Flag of USUS
Related business
Manufacturer
SpaceX/Seattle
Mission
Operational spacecraft
Bus & Motor
STARLINK V2MO, Unknown motor
Mass
575 kg wet, ~530 kg dry
Launch date (UTC)
2026-05-06 (1 month ago)
Launch vehicle
FALCON 9
Launch site
Air Force Western Test Range (AFWTR)
Object type
Payload
Rocket body
Debris
Shape & HBR
Unknown shape, 14.5 m
Radar Cross Section
Large (>1 m²)

Expand to show TLE details & history
Last TLE update: 14 hours ago

TLE from 14 hours ago
0 STARLINK-37240
1 69031U 26101G   26168.50360183  .00012850  00000-0  39959-3 0  9992
2 69031  97.2845  23.3810 0002009  83.8300 276.3171 15.33450107  6626
Epoch: 2026-06-17T12:05Z
TLE epoch observation values (Epoch: 2026-06-17T12:05:11.198Z)
Latitude
-0.00006°
Longitude
-63.67599°
Altitude
468.489 km
Speed
7.632 km/s
True Right ascension
01h 33m 31s
True Declination
0° 00' 00"
Sunlit
Object was in daylight at epoch
Visualization orbit readout
Latitude
Unknown
Longitude
Unknown
Altitude
Unknown
Speed
Unknown
Apparent Right ascension
Unknown
Apparent Declination
Unknown
Sunlit
N/A
Visualization observer readout
Local Sidereal Time
12:25:59
Azimuth
Unknown
Elevation
Unknown
Doppler factor
Unknown
Orbital elements
Apogee altitude
463.845 km
Perigee altitude
461.096 km
Semi-major axis
6,840.608 km
Eccentricity
0.0002
Inclination
97.2845°
RAAN
23.381°
Arg. of periapsis
83.83°
True anomaly
276.29422°
Mean anomaly
276.3171°
Eccentric anomaly
276.30566°
Mean motion
3.8362 °/min
Orbital period
93.84 mins
BSTAR
0.00039959
Loading maneuver chart data...
Computing Atmospheric mass density...
Loading historical data...
Loading historical data...
Loading historical data...
Loading historical data...
Loading historical data...
Loading historical data...
Loading historical data...

Documentation

Showing up to 5 results
|